| time (UTC) | temp F | wind direction | speed MPH | gust MPH | rain 1hr in | rain 24hr in | rain mn in | humidity % | barometer mb |
| 20260502184204 | 54 | 245 | 2.0 | 6.0 | 0.00 | 0.29 | 0.29 | 55 | 1010.7 |
| 20260502183704 | 54 | 302 | 2.0 | 8.0 | 0.00 | 0.29 | 0.29 | 57 | 1010.8 |
| 20260502182704 | 54 | 284 | 2.0 | 3.0 | 0.00 | 0.29 | 0.29 | 57 | 1010.8 |
| 20260502181704 | 54 | 50 | 3.0 | 8.0 | 0.00 | 0.29 | 0.29 | 56 | 1010.9 |
| 20260502181204 | 54 | 338 | 3.0 | 9.0 | 0.00 | 0.29 | 0.29 | 58 | 1010.9 |
| 20260502180204 | 55 | 301 | 4.0 | 10.0 | 0.00 | 0.29 | 0.29 | 62 | 1011.0 |
| 20260502170204 | 50 | 311 | 1.0 | 5.0 | 0.00 | 0.29 | 0.29 | 72 | 1011.6 |
| 20260502164204 | 51 | 55 | 3.0 | 5.0 | 0.00 | 0.29 | 0.29 | 74 | 1011.7 |
| 20260502163204 | 50 | 39 | 3.0 | 7.0 | 0.00 | 0.29 | 0.29 | 76 | 1011.8 |
| 20260502162704 | 50 | 317 | 3.0 | 5.0 | 0.00 | 0.29 | 0.29 | 76 | 1011.9 |
| 20260502162204 | 49 | 304 | 2.0 | 7.0 | 0.00 | 0.29 | 0.29 | 77 | 1012.0 |
| 20260502161204 | 50 | 337 | 3.0 | 8.0 | 0.01 | 0.29 | 0.29 | 78 | 1012.0 |
| 20260502160704 | 49 | 284 | 2.0 | 3.0 | 0.01 | 0.29 | 0.29 | 81 | 1012.1 |
| 20260502152204 | 46 | 230 | 1.0 | 2.0 | 0.01 | 0.29 | 0.29 | 85 | 1012.5 |
| 20260502151204 | 46 | 230 | 1.0 | 3.0 | 0.00 | 0.28 | 0.28 | 85 | 1012.3 |
| 20260502150704 | 47 | 263 | 1.0 | 2.0 | 0.00 | 0.28 | 0.28 | 86 | 1012.3 |
| 20260502150204 | 46 | 262 | 1.0 | 2.0 | 0.00 | 0.28 | 0.28 | 86 | 1012.3 |
| 20260502130704 | 47 | 310 | 3.0 | 7.0 | 0.02 | 0.27 | 0.27 | 89 | 1012.0 |
| 20260502130204 | 47 | 237 | 1.0 | 3.0 | 0.02 | 0.27 | 0.27 | 89 | 1011.9 |
| 20260502123704 | 47 | 253 | 0.0 | 1.0 | 0.01 | 0.26 | 0.26 | 89 | 1011.9 |
| 20260502123204 | 48 | 253 | 0.0 | 0.0 | 0.01 | 0.26 | 0.26 | 90 | 1011.8 |
| 20260502122703 | 47 | 253 | 0.0 | 0.0 | 0.01 | 0.26 | 0.26 | 90 | 1011.7 |
| 20260502122204 | 47 | 253 | 0.0 | 0.0 | 0.01 | 0.26 | 0.26 | 90 | 1011.7 |
| 20260502121705 | 47 | 253 | 0.0 | 1.0 | 0.01 | 0.26 | 0.26 | 90 | 1011.7 |
| 20260502121204 | 47 | 253 | 0.0 | 0.0 | 0.01 | 0.26 | 0.26 | 90 | 1011.8 |
| 20260502120704 | 48 | 253 | 0.0 | 0.0 | 0.00 | 0.25 | 0.25 | 90 | 1011.7 |
| 20260502120204 | 47 | 253 | 0.0 | 0.0 | 0.00 | 0.25 | 0.25 | 90 | 1011.7 |
| 20260502115704 | 47 | 253 | 0.0 | 2.0 | 0.00 | 0.25 | 0.25 | 90 | 1011.7 |
| 20260502115204 | 47 | 253 | 0.0 | 0.0 | 0.00 | 0.25 | 0.25 | 90 | 1011.6 |
| 20260502114204 | 47 | 253 | 0.0 | 0.0 | 0.00 | 0.25 | 0.25 | 90 | 1011.8 |
| 20260502113704 | 47 | 253 | 0.0 | 0.0 | 0.00 | 0.25 | 0.25 | 90 | 1011.8 |
| 20260502113204 | 47 | 253 | 0.0 | 0.0 | 0.00 | 0.25 | 0.25 | 90 | 1011.7 |
| 20260502112704 | 47 | 253 | 0.0 | 0.0 | 0.00 | 0.25 | 0.25 | 90 | 1011.7 |
| 20260502112204 | 47 | 253 | 0.0 | 0.0 | 0.00 | 0.25 | 0.25 | 90 | 1011.6 |
| 20260502111704 | 47 | 253 | 0.0 | 0.0 | 0.00 | 0.25 | 0.25 | 90 | 1011.6 |
| 20260502110704 | 47 | 253 | 0.0 | 0.0 | 0.00 | 0.25 | 0.25 | 90 | 1011.5 |
| 20260502110204 | 47 | 253 | 0.0 | 0.0 | 0.01 | 0.25 | 0.25 | 90 | 1011.5 |
| 20260502105704 | 47 | 253 | 0.0 | 0.0 | 0.01 | 0.25 | 0.25 | 90 | 1011.7 |
| 20260502104204 | 46 | 253 | 0.0 | 0.0 | 0.03 | 0.25 | 0.25 | 90 | 1011.4 |
| 20260502103704 | 46 | 253 | 0.0 | 0.0 | 0.04 | 0.25 | 0.25 | 90 | 1011.4 |
| 20260502103203 | 46 | 253 | 0.0 | 0.0 | 0.04 | 0.25 | 0.25 | 90 | 1011.3 |
| 20260502102204 | 46 | 253 | 0.0 | 0.0 | 0.05 | 0.25 | 0.25 | 90 | 1011.0 |
| 20260502101204 | 46 | 253 | 0.0 | 0.0 | 0.05 | 0.25 | 0.25 | 90 | 1011.1 |
| 20260502100704 | 46 | 253 | 0.0 | 0.0 | 0.05 | 0.25 | 0.25 | 90 | 1011.0 |
| 20260502100205 | 46 | 253 | 0.0 | 0.0 | 0.04 | 0.24 | 0.24 | 90 | 1010.9 |
| 20260502090705 | 46 | 253 | 0.0 | 0.0 | 0.03 | 0.20 | 0.20 | 89 | 1010.8 |
| 20260502090205 | 46 | 253 | 0.0 | 0.0 | 0.04 | 0.20 | 0.20 | 89 | 1010.9 |
| 20260502071205 | 47 | 253 | 0.0 | 0.0 | 0.04 | 0.11 | 0.11 | 88 | 1011.4 |
| 20260502070203 | 46 | 253 | 0.0 | 0.0 | 0.04 | 0.11 | 0.11 | 88 | 1011.7 |
| 20260502065704 | 46 | 253 | 0.0 | 0.0 | 0.04 | 0.11 | 0.11 | 88 | 1011.6 |
| 20260502065204 | 46 | 253 | 0.0 | 0.0 | 0.05 | 0.11 | 0.11 | 88 | 1011.6 |
| 20260502064204 | 46 | 253 | 0.0 | 0.0 | 0.06 | 0.10 | 0.10 | 88 | 1011.6 |
| 20260502063704 | 47 | 253 | 0.0 | 0.0 | 0.06 | 0.10 | 0.10 | 88 | 1011.7 |
| 20260502063205 | 47 | 253 | 0.0 | 0.0 | 0.05 | 0.09 | 0.09 | 88 | 1011.6 |
| 20260502062703 | 47 | 253 | 0.0 | 0.0 | 0.04 | 0.08 | 0.08 | 88 | 1011.6 |
| 20260502062204 | 47 | 253 | 0.0 | 0.0 | 0.04 | 0.08 | 0.08 | 88 | 1011.7 |
| 20260502061704 | 46 | 253 | 0.0 | 0.0 | 0.03 | 0.07 | 0.07 | 88 | 1011.7 |
| 20260502061204 | 46 | 253 | 0.0 | 0.0 | 0.03 | 0.07 | 0.07 | 87 | 1011.7 |
| 20260502060703 | 46 | 253 | 0.0 | 0.0 | 0.03 | 0.07 | 0.07 | 87 | 1011.7 |
| 20260502060204 | 46 | 253 | 0.0 | 0.0 | 0.03 | 0.07 | 0.07 | 87 | 1011.8 |
| 20260502055703 | 47 | 253 | 0.0 | 0.0 | 0.03 | 0.07 | 0.07 | 87 | 1011.8 |
| 20260502055204 | 47 | 253 | 0.0 | 0.0 | 0.02 | 0.06 | 0.06 | 87 | 1011.8 |
| 20260502054204 | 47 | 253 | 0.0 | 0.0 | 0.01 | 0.04 | 0.04 | 87 | 1011.8 |
| 20260502053704 | 46 | 253 | 0.0 | 0.0 | 0.01 | 0.04 | 0.04 | 87 | 1011.8 |
| 20260502053204 | 46 | 253 | 0.0 | 0.0 | 0.01 | 0.04 | 0.04 | 87 | 1011.8 |
| 20260502052705 | 47 | 253 | 0.0 | 0.0 | 0.01 | 0.04 | 0.04 | 87 | 1011.8 |
| 20260502052204 | 47 | 253 | 0.0 | 1.0 | 0.01 | 0.04 | 0.04 | 87 | 1011.7 |
| 20260502051704 | 47 | 253 | 0.0 | 0.0 | 0.01 | 0.04 | 0.04 | 86 | 1011.7 |
| 20260502051204 | 46 | 253 | 0.0 | 0.0 | 0.01 | 0.04 | 0.04 | 86 | 1011.7 |
| 20260502050704 | 46 | 253 | 0.0 | 1.0 | 0.03 | 0.04 | 0.04 | 86 | 1011.7 |
| 20260502050204 | 47 | 253 | 0.0 | 0.0 | 0.03 | 0.04 | 0.04 | 86 | 1011.6 |
| 20260502045703 | 46 | 253 | 0.0 | 0.0 | 0.04 | 0.04 | 0.04 | 86 | 1011.6 |
| 20260502044704 | 47 | 253 | 0.0 | 0.0 | 0.04 | 0.04 | 0.04 | 85 | 1011.8 |
| 20260502044203 | 47 | 253 | 0.0 | 0.0 | 0.03 | 0.03 | 0.03 | 85 | 1012.1 |
| 20260502043704 | 47 | 253 | 0.0 | 0.0 | 0.03 | 0.03 | 0.03 | 84 | 1012.1 |
| 20260502043204 | 47 | 253 | 0.0 | 0.0 | 0.03 | 0.03 | 0.03 | 84 | 1012.0 |
| 20260502042203 | 47 | 253 | 0.0 | 0.0 | 0.03 | 0.03 | 0.03 | 83 | 1012.0 |
| 20260502041704 | 48 | 253 | 0.0 | 3.0 | 0.03 | 0.03 | 0.03 | 82 | 1012.1 |
| 20260502041204 | 48 | 255 | 2.0 | 3.0 | 0.03 | 0.03 | 0.03 | 81 | 1012.0 |
| 20260502040703 | 48 | 229 | 0.0 | 0.0 | 0.01 | 0.01 | 0.01 | 80 | 1012.1 |
| 20260502040204 | 49 | 229 | 0.0 | 0.0 | 0.01 | 0.01 | 0.01 | 79 | 1012.0 |
| 20260502035205 | 49 | 229 | 0.0 | 3.0 | 0.00 | 0.00 | 0.00 | 77 | 1011.7 |
| 20260502034703 | 49 | 229 | 0.0 | 1.0 | 0.00 | 0.00 | 0.00 | 75 | 1011.5 |
| 20260502034204 | 49 | 229 | 0.0 | 0.0 | 0.00 | 0.00 | 0.00 | 75 | 1011.4 |
| 20260502033704 | 49 | 229 | 0.0 | 0.0 | 0.00 | 0.00 | 0.00 | 75 | 1011.4 |
| 20260502033204 | 49 | 229 | 0.0 | 0.0 | 0.00 | 0.00 | 0.00 | 74 | 1011.4 |
| 20260502032703 | 49 | 229 | 0.0 | 0.0 | 0.00 | 0.00 | 0.00 | 74 | 1011.3 |
| 20260502032203 | 49 | 229 | 0.0 | 0.0 | 0.00 | 0.00 | 0.00 | 73 | 1011.4 |
| 20260502031704 | 49 | 229 | 0.0 | 0.0 | 0.00 | 0.00 | 0.00 | 73 | 1011.4 |
| 20260502031204 | 49 | 229 | 0.0 | 0.0 | 0.00 | 0.00 | 0.00 | 72 | 1011.4 |
| 20260502030204 | 49 | 229 | 0.0 | 0.0 | 0.00 | 0.00 | 0.00 | 72 | 1011.4 |
| 20260502025704 | 49 | 229 | 0.0 | 0.0 | 0.00 | 0.00 | 0.00 | 71 | 1011.5 |
| 20260502025204 | 49 | 229 | 0.0 | 0.0 | 0.00 | 0.00 | 0.00 | 71 | 1011.5 |
| 20260502024704 | 49 | 229 | 0.0 | 0.0 | 0.00 | 0.00 | 0.00 | 71 | 1011.4 |
| 20260502024204 | 49 | 229 | 0.0 | 0.0 | 0.00 | 0.00 | 0.00 | 71 | 1011.3 |
| 20260502023704 | 49 | 229 | 0.0 | 0.0 | 0.00 | 0.00 | 0.00 | 71 | 1011.4 |
| 20260502023204 | 49 | 229 | 0.0 | 0.0 | 0.00 | 0.00 | 0.00 | 71 | 1011.3 |
| 20260502022703 | 49 | 229 | 0.0 | 0.0 | 0.00 | 0.00 | 0.00 | 71 | 1011.3 |
| 20260502022204 | 49 | 229 | 0.0 | 0.0 | 0.00 | 0.00 | 0.00 | 71 | 1011.4 |
| 20260502021705 | 49 | 229 | 0.0 | 0.0 | 0.00 | 0.00 | 0.00 | 71 | 1011.3 |
| 20260502021204 | 49 | 229 | 0.0 | 0.0 | 0.00 | 0.00 | 0.00 | 71 | 1011.4 |
| 20260502020704 | 49 | 229 | 0.0 | 0.0 | 0.00 | 0.00 | 0.00 | 71 | 1011.5 |
| 20260502020204 | 49 | 229 | 0.0 | 0.0 | 0.00 | 0.00 | 0.00 | 71 | 1011.6 |
| 20260502015703 | 49 | 229 | 0.0 | 0.0 | 0.00 | 0.00 | 0.00 | 71 | 1011.6 |
| 20260502015204 | 49 | 229 | 0.0 | 0.0 | 0.00 | 0.00 | 0.00 | 70 | 1011.6 |
| 20260502014704 | 49 | 229 | 0.0 | 0.0 | 0.00 | 0.00 | 0.00 | 70 | 1011.5 |
| 20260502014204 | 49 | 229 | 0.0 | 0.0 | 0.00 | 0.00 | 0.00 | 69 | 1011.5 |
| 20260502013704 | 49 | 229 | 0.0 | 0.0 | 0.00 | 0.00 | 0.00 | 69 | 1011.5 |
| 20260502012704 | 50 | 229 | 0.0 | 0.0 | 0.00 | 0.00 | 0.00 | 68 | 1011.5 |
| 20260502012204 | 51 | 229 | 0.0 | 0.0 | 0.00 | 0.00 | 0.00 | 68 | 1011.5 |
| 20260502011704 | 51 | 229 | 0.0 | 0.0 | 0.00 | 0.00 | 0.00 | 67 | 1011.5 |
| 20260502011204 | 52 | 229 | 0.0 | 0.0 | 0.00 | 0.00 | 0.00 | 66 | 1011.4 |
| 20260502010704 | 52 | 229 | 0.0 | 0.0 | 0.00 | 0.00 | 0.00 | 65 | 1011.3 |
| 20260502010204 | 53 | 229 | 0.0 | 0.0 | 0.00 | 0.00 | 0.00 | 62 | 1011.3 |
| 20260502005204 | 54 | 229 | 0.0 | 0.0 | 0.00 | 0.00 | 0.00 | 55 | 1011.3 |
| 20260502004205 | 55 | 229 | 0.0 | 0.0 | 0.00 | 0.00 | 0.00 | 53 | 1011.4 |
| 20260502003704 | 56 | 229 | 1.0 | 3.0 | 0.00 | 0.00 | 0.00 | 49 | 1011.3 |
| 20260502003204 | 56 | 314 | 1.0 | 2.0 | 0.00 | 0.00 | 0.00 | 49 | 1011.3 |
| 20260502002704 | 56 | 314 | 1.0 | 2.0 | 0.00 | 0.00 | 0.00 | 50 | 1011.3 |
| 20260502002204 | 56 | 315 | 1.0 | 2.0 | 0.00 | 0.00 | 0.00 | 50 | 1011.2 |
| 20260502001704 | 56 | 315 | 0.0 | 0.0 | 0.00 | 0.00 | 0.00 | 51 | 1011.1 |
| 20260502001204 | 56 | 315 | 0.0 | 2.0 | 0.00 | 0.00 | 0.00 | 52 | 1010.9 |
| 20260502000704 | 56 | 315 | 0.0 | 3.0 | 0.00 | 0.00 | 0.00 | 55 | 1010.8 |
| 20260502000204 | 56 | 315 | 0.0 | 0.0 | 0.00 | 0.00 | 0.00 | 54 | 1010.7 |
| 20260501235704 | 56 | 315 | 0.0 | 0.0 | 0.00 | 0.00 | 0.00 | 53 | 1010.7 |
| 20260501235204 | 56 | 315 | 0.0 | 0.0 | 0.00 | 0.00 | 0.00 | 54 | 1010.5 |
| 20260501234704 | 57 | 315 | 0.0 | 0.0 | 0.00 | 0.00 | 0.00 | 51 | 1010.5 |
| 20260501234204 | 57 | 315 | 0.0 | 2.0 | 0.00 | 0.00 | 0.00 | 48 | 1010.4 |
| 20260501233703 | 57 | 315 | 0.0 | 0.0 | 0.00 | 0.00 | 0.00 | 48 | 1010.2 |
| 20260501233204 | 57 | 315 | 0.0 | 0.0 | 0.00 | 0.00 | 0.00 | 47 | 1010.2 |
| 20260501232704 | 58 | 315 | 0.0 | 1.0 | 0.00 | 0.00 | 0.00 | 47 | 1010.1 |
| 20260501232204 | 58 | 315 | 0.0 | 1.0 | 0.00 | 0.00 | 0.00 | 45 | 1010.0 |
| 20260501231204 | 59 | 315 | 1.0 | 3.0 | 0.00 | 0.00 | 0.00 | 43 | 1009.9 |
| 20260501230704 | 59 | 315 | 2.0 | 3.0 | 0.00 | 0.00 | 0.00 | 42 | 1009.8 |
| 20260501230203 | 59 | 305 | 1.0 | 2.0 | 0.00 | 0.00 | 0.00 | 42 | 1009.8 |
| 20260501225704 | 59 | 305 | 1.0 | 3.0 | 0.00 | 0.00 | 0.00 | 43 | 1009.8 |
| 20260501224704 | 59 | 304 | 1.0 | 3.0 | 0.00 | 0.00 | 0.00 | 42 | 1009.7 |
| 20260501224204 | 59 | 304 | 1.0 | 3.0 | 0.00 | 0.00 | 0.00 | 40 | 1009.7 |
| 20260501223704 | 60 | 306 | 0.0 | 0.0 | 0.00 | 0.00 | 0.00 | 40 | 1009.7 |
| 20260501222704 | 60 | 313 | 2.0 | 6.0 | 0.00 | 0.00 | 0.00 | 40 | 1009.6 |
| 20260501222204 | 60 | 288 | 1.0 | 3.0 | 0.00 | 0.00 | 0.00 | 40 | 1009.6 |
| 20260501221704 | 60 | 194 | 1.0 | 3.0 | 0.00 | 0.00 | 0.00 | 38 | 1009.6 |
| 20260501221204 | 61 | 193 | 2.0 | 6.0 | 0.00 | 0.00 | 0.00 | 38 | 1009.6 |
| 20260501220703 | 62 | 283 | 2.0 | 8.0 | 0.00 | 0.00 | 0.00 | 38 | 1009.5 |
| 20260501220203 | 62 | 232 | 2.0 | 5.0 | 0.00 | 0.00 | 0.00 | 38 | 1009.5 |
| 20260501215704 | 62 | 249 | 2.0 | 5.0 | 0.00 | 0.00 | 0.00 | 39 | 1009.5 |
| 20260501215204 | 61 | 35 | 1.0 | 5.0 | 0.00 | 0.00 | 0.00 | 38 | 1009.4 |
| 20260501214704 | 62 | 57 | 1.0 | 3.0 | 0.00 | 0.00 | 0.00 | 38 | 1009.5 |
| 20260501214204 | 62 | 207 | 1.0 | 2.0 | 0.00 | 0.00 | 0.00 | 38 | 1009.5 |
| 20260501213704 | 62 | 210 | 3.0 | 7.0 | 0.00 | 0.00 | 0.00 | 36 | 1009.4 |
| 20260501213205 | 62 | 300 | 2.0 | 8.0 | 0.00 | 0.00 | 0.00 | 38 | 1009.5 |
| 20260501212204 | 60 | 278 | 1.0 | 7.0 | 0.00 | 0.00 | 0.00 | 41 | 1009.5 |
| 20260501211204 | 62 | 228 | 2.0 | 6.0 | 0.00 | 0.00 | 0.00 | 37 | 1009.6 |
| 20260501210704 | 63 | 241 | 1.0 | 3.0 | 0.00 | 0.00 | 0.00 | 36 | 1009.5 |
| 20260501210204 | 63 | 244 | 2.0 | 3.0 | 0.00 | 0.00 | 0.00 | 36 | 1009.4 |
| 20260501205704 | 62 | 278 | 2.0 | 8.0 | 0.00 | 0.00 | 0.00 | 38 | 1009.6 |
| 20260501205204 | 61 | 249 | 2.0 | 6.0 | 0.00 | 0.00 | 0.00 | 39 | 1009.6 |
| 20260501204704 | 62 | 211 | 4.0 | 6.0 | 0.00 | 0.00 | 0.00 | 36 | 1009.5 |
| 20260501204204 | 61 | 218 | 1.0 | 3.0 | 0.00 | 0.00 | 0.00 | 41 | 1009.5 |
| 20260501203704 | 62 | 222 | 2.0 | 3.0 | 0.00 | 0.00 | 0.00 | 36 | 1009.6 |
| 20260501203204 | 62 | 222 | 2.0 | 7.0 | 0.00 | 0.00 | 0.00 | 38 | 1009.6 |
| 20260501202704 | 62 | 214 | 4.0 | 9.0 | 0.00 | 0.00 | 0.00 | 36 | 1009.6 |
| 20260501202204 | 63 | 219 | 2.0 | 5.0 | 0.00 | 0.00 | 0.00 | 36 | 1009.5 |
| 20260501201704 | 63 | 300 | 1.0 | 5.0 | 0.00 | 0.00 | 0.00 | 40 | 1009.5 |
| 20260501201204 | 62 | 283 | 1.0 | 6.0 | 0.00 | 0.00 | 0.00 | 37 | 1009.6 |
| 20260501200204 | 63 | 331 | 2.0 | 10.0 | 0.00 | 0.00 | 0.00 | 41 | 1009.6 |
| 20260501195704 | 63 | 313 | 3.0 | 12.0 | 0.00 | 0.00 | 0.00 | 37 | 1009.7 |
| 20260501195204 | 64 | 214 | 3.0 | 5.0 | 0.00 | 0.00 | 0.00 | 36 | 1009.7 |
| 20260501194704 | 63 | 249 | 2.0 | 8.0 | 0.00 | 0.00 | 0.00 | 36 | 1009.6 |
| 20260501194204 | 62 | 71 | 2.0 | 8.0 | 0.00 | 0.00 | 0.00 | 36 | 1009.6 |
| 20260501193704 | 62 | 309 | 3.0 | 7.0 | 0.00 | 0.00 | 0.00 | 38 | 1009.6 |
| 20260501193204 | 63 | 256 | 2.0 | 3.0 | 0.00 | 0.00 | 0.00 | 36 | 1009.7 |
| 20260501192704 | 64 | 237 | 2.0 | 3.0 | 0.00 | 0.00 | 0.00 | 36 | 1009.7 |
| 20260501192204 | 64 | 231 | 2.0 | 7.0 | 0.00 | 0.00 | 0.00 | 38 | 1009.8 |
| 20260501191704 | 64 | 263 | 0.0 | 3.0 | 0.00 | 0.00 | 0.00 | 38 | 1009.8 |
| 20260501190705 | 63 | 192 | 1.0 | 8.0 | 0.00 | 0.00 | 0.00 | 40 | 1009.9 |
| 20260501190204 | 63 | 231 | 2.0 | 9.0 | 0.00 | 0.00 | 0.00 | 38 | 1009.9 |
| 20260501185704 | 63 | 297 | 2.0 | 6.0 | 0.00 | 0.00 | 0.00 | 36 | 1010.0 |
| 20260501185204 | 62 | 281 | 3.0 | 9.0 | 0.00 | 0.00 | 0.00 | 35 | 1010.1 |
| 20260501184704 | 62 | 292 | 2.0 | 12.0 | 0.00 | 0.00 | 0.00 | 37 | 1010.0 |